Regional Weather Roundup
Issued by NWS

Home | Current Version | Previous Version | Graphics & Text | Print | Product List | Glossary On
Versions: 1 2 3 4 5 6 7 8 9 10 11 12 13 14 15 16 17 18 19 20 21 22 23 24 25 26 27 28 29 30 31 32 33 34 35 36 37 38 39 40 41 42 43 44 45 46 47 48 49 50
239
ASUS45 KSLC 222110
RWRUT

UTAH REGIONAL WEATHER ROUNDUP
NATIONAL WEATHER SERVICE SALT LAKE CITY UT
200 PM MST THU FEB 22 2018

UTZ001>011-023>025-222200-

NORTHERN UTAH

CITY           SKY/WX    TMP DP  RH WIND       PRES   REMARKS
BRIGHAM CITY   CLOUDY    29  19  63 CALM      29.96F
DUGWAY         CLOUDY    29  18  62 S10       29.95F WCI  20
HILL AFB       CLOUDY    27  16  62 E7        29.92F WCI  20
LOGAN          PTSUNNY   20  10  65 W3        29.96F
OGDEN          CLOUDY    31  15  52 S7        29.93F WCI  24
SALT LAKE CITY PTSUNNY   37  16  42 S16G25    29.92F WCI  28
TOOELE VALLEY  CLOUDY    34  19  55 S16       29.93F WCI  23
WENDOVER         N/A     27  16  63 E8        29.93F WCI  19
HEBER CITY       N/A     28  14  54 CALM      29.89F
WEST JORDAN    PTSUNNY   31  18  59 SE16      29.93F WCI  20

$$

UTZ011>015-024>027-222200-

CENTRAL/NORTHEAST UTAH

CITY           SKY/WX    TMP DP  RH WIND       PRES   REMARKS
PROVO AIRPORT  PTSUNNY   32  17  54 VRB5      29.96F WCI  27
MOAB/CANYONLAN PTSUNNY   37  15  40 W6        29.94F WCI  32
DELTA          PTSUNNY   30  19  64 S14G22    29.94F WCI  20
PRICE          LGT SNOW  27  18  69 MISG      29.90F
RICHFIELD      MOSUNNY   36   9  32 S17G25    29.92F WCI  25
VERNAL           N/A     25  16  68 S3        29.95F

$$

UTZ013>016-019>022-027-222200-

SOUTHERN UTAH

CITY           SKY/WX    TMP DP  RH WIND       PRES   REMARKS
BRYCE CANYON   CLOUDY    25   5  42 S18       29.91F WCI  11
CEDAR CITY       N/A     32  14  47 SW16G25   29.92F WCI  21
MILFORD        CLOUDY    30  18  60 S7        29.93F WCI  23
ST GEORGE        N/A     46  15  28 VRB3      30.01F
HANKSVILLE     PTSUNNY   39   9  28 S9        29.97F WCI  33
KANAB          MOSUNNY   39   5  24 S17G23    30.03F WCI  30
BLANDING         N/A     34   8  33 S12G20    30.04F WCI  26

$$

REGIONAL REPORTS     COLORADO/ARIZONA

CITY           SKY/WX    TMP DP  RH WIND       PRES   REMARKS
CRAIG, CO      CLOUDY    24  15  68 S5        29.92F WCI  18
GRAND JUNCTION PTSUNNY   32  29  88 SE10      29.96F WCI  24
RIFLE, CO      CLOUDY    31  19  61 W18       29.94F WCI  19
MONTROSE, CO   PTSUNNY   32  24  72 NW10      29.97S WCI  24
CORTEZ, CO     PTSUNNY   37   4  25 SW12G22   29.99F WCI  29
COLORADO CITY  MOCLDY    39  10  30 SW8       30.02F WCI  34
PAGE, AZ         N/A     43   8  23 SW9       29.99F
GRAND CANYON     N/A     33  11  39 SW23G30   29.99F WCI  21
KINGMAN, AZ      N/A     49   9  19 SW31G39   30.05F
FLAGSTAFF, AZ    N/A     32   8  36 SW22G30   29.99F WCI  19

$$

REGIONAL REPORTS    NEVADA/IDAHO/WYOMING

CITY           SKY/WX    TMP DP  RH WIND       PRES   REMARKS
LAS VEGAS, NV    N/A     53  16  23 SW18G32   29.98F
ELY, NY        CLOUDY    26  11  52 S16G29    29.86F WCI  14
ELKO, NV       PTSUNNY   28  19  69 W12       29.88F WCI  18
POCATELLO, ID    N/A     34  17  50 S16       29.91F WCI  24
BURLEY, ID     CLOUDY    29  20  69 S8        29.90F WCI  21
FORT BRIDGER,    N/A      6   3  86 CALM      29.92F
EVANSTON, WY   CLOUDY    14   5  67 E8        29.86F WCI   3
ROCK SPRINGS,    N/A     16   7  67 CALM      29.89F

$$




USA.gov is the U.S. government's official web portal to all federal, state and local government web resources and services.